Find Local Weather

World > North America > United States > Minnesota

Balaton, Minnesota Regional Weather

Lat: 44.23N, Lon: 95.87W
Wx Zone: MNZ072
Warning FLW WEATHER ALERT - (More Info. Click Here) Warning
Feedback
Expires:201812191400;;027683
ASUS43 KMPX 191310
RWRMN 
WEATHER ROUNDUP FOR MINNESOTA
NATIONAL WEATHER SERVICE TWIN CITIES/CHANHASSEN MN
700 AM CST WED DEC 19 2018


NOTE: "FAIR" INDICATES FEW OR NO CLOUDS BELOW 12,000 FEET WITH NO
SIGNIFICANT WEATHER AND/OR OBSTRUCTIONS TO VISIBILITY. N/A MEANS
CURRENT SKY AND/OR WEATHER CONDITIONS ARE NOT AVAILABLE.


MNZ071>073-080-081-089-090-097-098-191400-
   Southwest Minnesota   
  
CITY           SKY/WX    TMP DP  RH WIND       PRES   REMARKS
MONTEVIDEO     PTCLDY    30  30 100 CALM      29.56S                  
GRANITE FALLS  CLOUDY    32  31  97 SE6       29.57F WCI  27          
CANBY          PTCLDY    33  32  96 SW5       29.56F WCI  29          
MARSHALL       PTCLDY    30  28  92 S6        29.57F WCI  24          
REDWOOD FALLS  PTCLDY    32  31  96 S8        29.57F FOG     WCI  25  
OLIVIA         PTCLDY    32  32 100 SE5       29.56F FOG     WCI  27  
PIPESTONE      CLOUDY    28  28 100 CALM      29.55S FOG              
WINDOM         PTCLDY    34  32  93 S5        29.57F WCI  30          
WORTHINGTON    CLEAR     33  31  92 SW10      29.56F WCI  25          
JACKSON        PTCLDY    34  32  93 S9        29.58F FOG     WCI  26  
TRACY          PTCLDY    34  32  92 SW6       29.55F WCI  29          
SLAYTON        PTCLDY    30  30 100 CALM      29.57F FOG              
$$

SKY/WX - Weather  TMP - Temperature  DP - Dew Point  RH - Relative Humidity
WIND - Wind Direction/Speed PRES - Barometric Pressure